If you wish to contribute or participate in the discussions about articles you are invited to join SKYbrary as a registered user

 Actions

Ajaccio-Napoléon Bonaparte Airport

From SKYbrary Wiki

LFKJ
Airport
ICAO: LFKJ – IATA: AJA
Summary
Name Ajaccio-Napoléon Bonaparte Airport
Region Europe
Territory France FR.gif
Location Ajaccio, Corse
Serving Ajaccio
Elevation 5.486 m
18 ft
18 ft5.486 m
Type medium airport
Coordinates 41° 55' 25.09" N, 8° 48' 10.50" E
Runways
Designator Length Width Surface ROPS
2/20 2407 m7,896.982 ft
45 m147.638 ft
ASP yes/yes


METAR
Observation LFKJ 142230Z AUTO VRB02KT 9999 OVC035 10/07 Q1013 NOSIG
Station Ajaccio
Date/Time 14 December 2018 22:30:00
Wind direction °
Wind speed 02 kts
Lowest cloud amount overcast
Temperature 10°C
Dew point 7°C
Humidity 81%
QNH 1013 hPa
Weather condition n/a

Ajaccio-Napoléon Bonaparte Airport

ICAO: LFKJ IATA: AJA

Description

International airport serving Ajaccio south and central Corsica.

Climatology

Dry-summer subtropical ”Mediterranean" climate (Köppen climate classification Csa) - characterized by hot, dry summers and mild winters. During the summer, subtropical high pressure cells dominate, making rainfall unlikely except for the occasional thunderstorm. In the winter, periodic storms bring rain (snow at higher elevations).

Maps

Terrain

Loading map...

Airport Layout

Loading map...


Accidents & Serious Incidents at or in vicinity of LFKJ

None on SKYbrary